Location: Newark
(52.8300°N, 8.0000°E)
Time: 10:29:42
(UTC+00:00)

STARLINK-1124 - Pass Details

Date: 01 February 2020
Orbit: 349 x 350 km, 53.0° (Epoch: 16 February)

Event Time Altitude Azimuth Distance (km) Brightness Sun altitude
Rises 17:13:50 0° 282° (WNW) 2,179 7.9 -9.5°
Reaches altitude 10° 17:16:07 10° 266° (W) 1,333 7.1 -9.8°
Maximum altitude 17:18:28 21° 214° (SW) 858 5.3 -10.2°
Drops below altitude 10° 17:20:49 10° 161° (SSE) 1,329 5.5 -10.5°
Sets 17:23:06 0° 145° (SE) 2,172 6.5 -10.8°
